AAY481 KFLL-KCVG

Flight info

Callsign AAY481
Flight time N/A
Altitude 33000
Route AGERS1 DUCEN Q87 OVENP/N0456F350 Q87 VIYAP Q69 GURGE/N0453F340 Q93 FISHO/N0452F350 Q93 QUIWE/N0453F340 BURGG CUBIM JAKIE7
Aircraft A320/M-SDE3FGHIRWY/LB1

Departure

Time 2026-05-07 10:43
Airport Fort Lauderdale Hollywood International Airport (KFLL)

Arrival

Time N/A
Airport Cincinnati Northern Kentucky International Airport (KCVG)
Time Latitude Longitude Altitude Speed Heading
2026-05-07 10:33 26.07321 -80.13971 19 ft 0 kts 356°
2026-05-07 10:37 26.07326 -80.13971 19 ft 3 kts 356°
2026-05-07 10:38 26.07362 -80.13968 19 ft 9 kts 11°
2026-05-07 10:38 26.07420 -80.13954 19 ft 0 kts
2026-05-07 10:38 26.07449 -80.13953 19 ft 8 kts
2026-05-07 10:39 26.07526 -80.13978 19 ft 15 kts 323°
2026-05-07 10:39 26.07555 -80.14097 20 ft 19 kts 270°
2026-05-07 10:39 26.07560 -80.14270 20 ft 25 kts 271°
2026-05-07 10:39 26.07561 -80.14484 20 ft 30 kts 272°
2026-05-07 10:40 26.07562 -80.14736 20 ft 35 kts 271°
2026-05-07 10:40 26.07564 -80.15016 19 ft 38 kts 270°
2026-05-07 10:40 26.07565 -80.15326 19 ft 42 kts 270°
2026-05-07 10:40 26.07566 -80.15660 19 ft 44 kts 271°
2026-05-07 10:41 26.07570 -80.16012 20 ft 47 kts 269°
2026-05-07 10:41 26.07570 -80.16355 20 ft 30 kts 271°
2026-05-07 10:41 26.07573 -80.16475 20 ft 0 kts 272°
2026-05-07 10:41 26.07573 -80.16491 20 ft 6 kts 270°
2026-05-07 10:42 26.07573 -80.16512 20 ft 1 kts 270°
2026-05-07 10:42 26.07575 -80.16543 20 ft 9 kts 272°
2026-05-07 10:42 26.07610 -80.16638 20 ft 16 kts 330°
2026-05-07 10:42 26.07693 -80.16609 21 ft 6 kts 87°
2026-05-07 10:43 26.07695 -80.16548 22 ft 42 kts 89°
2026-05-07 10:43 26.07686 -80.15802 22 ft 151 kts 91°
2026-05-07 10:43 26.07719 -80.14417 576 ft 190 kts 85°
2026-05-07 10:43 26.07809 -80.12951 1767 ft 190 kts 90°
2026-05-07 10:44 26.07848 -80.11532 3225 ft 177 kts 90°
2026-05-07 10:44 26.07932 -80.10227 4682 ft 161 kts 80°
2026-05-07 10:44 26.08181 -80.09079 6077 ft 145 kts 71°
2026-05-07 10:44 26.08587 -80.08106 7305 ft 133 kts 58°
2026-05-07 10:45 26.09153 -80.07355 8360 ft 125 kts 44°
2026-05-07 10:45 26.09869 -80.06817 9104 ft 126 kts 29°
2026-05-07 10:45 26.10702 -80.06448 9749 ft 131 kts 24°
2026-05-07 10:45 26.11573 -80.06102 10356 ft 136 kts 23°
2026-05-07 10:46 26.12579 -80.05695 10639 ft 173 kts 23°
2026-05-07 10:46 26.13793 -80.05207 11052 ft 195 kts 21°
2026-05-07 10:46 26.15139 -80.04853 11741 ft 204 kts
2026-05-07 10:46 26.16560 -80.05008 12520 ft 207 kts 347°
2026-05-07 10:47 26.17921 -80.05477 13355 ft 208 kts 343°
2026-05-07 10:47 26.19288 -80.06019 14161 ft 209 kts 342°
2026-05-07 10:47 26.20647 -80.06606 14886 ft 211 kts 335°
2026-05-07 10:47 26.21885 -80.07475 15605 ft 213 kts 320°
2026-05-07 10:48 26.22843 -80.08729 16368 ft 213 kts 301°
2026-05-07 10:48 26.23486 -80.10212 17139 ft 213 kts 294°
2026-05-07 10:48 26.24031 -80.11746 17881 ft 213 kts 292°
2026-05-07 10:48 26.24564 -80.13293 18574 ft 214 kts 292°
2026-05-07 10:49 26.25207 -80.14787 19179 ft 214 kts 303°
2026-05-07 10:49 26.26148 -80.16045 19778 ft 216 kts 317°
2026-05-07 10:49 26.27395 -80.16993 20368 ft 219 kts 327°
2026-05-07 10:49 26.28748 -80.17782 20963 ft 221 kts 329°
2026-05-07 10:50 26.30127 -80.18546 21563 ft 222 kts 329°
2026-05-07 10:50 26.31517 -80.19316 22176 ft 224 kts 329°
2026-05-07 10:50 26.32914 -80.20096 22829 ft 226 kts 328°
2026-05-07 10:50 26.34323 -80.20887 23537 ft 227 kts 328°
2026-05-07 10:51 26.35738 -80.21682 24145 ft 228 kts 328°
2026-05-07 10:51 26.37209 -80.22388 24716 ft 233 kts 335°
2026-05-07 10:51 26.38794 -80.22853 25270 ft 239 kts 343°
2026-05-07 10:51 26.40465 -80.23093 25816 ft 244 kts 347°
2026-05-07 10:52 26.42141 -80.23266 26346 ft 247 kts 347°
2026-05-07 10:52 26.43863 -80.23433 26870 ft 249 kts 347°
2026-05-07 10:52 26.45601 -80.23605 27399 ft 252 kts 347°
2026-05-07 10:52 26.47356 -80.23780 27917 ft 255 kts 347°
2026-05-07 10:53 26.49129 -80.23960 28426 ft 257 kts 347°
2026-05-07 10:53 26.50922 -80.24143 28953 ft 260 kts 347°
2026-05-07 10:53 26.52730 -80.24329 29439 ft 263 kts 347°
2026-05-07 10:53 26.54561 -80.24517 29944 ft 266 kts 346°
2026-05-07 10:54 26.56381 -80.24739 30364 ft 267 kts 344°
2026-05-07 10:54 26.58229 -80.25026 30754 ft 270 kts 343°
2026-05-07 10:54 26.60098 -80.25333 31142 ft 273 kts 343°
2026-05-07 10:54 26.61983 -80.25647 31517 ft 275 kts 344°
2026-05-07 10:55 26.63889 -80.25964 31885 ft 278 kts 344°
2026-05-07 10:55 26.65814 -80.26285 32262 ft 281 kts 344°
2026-05-07 10:55 26.67756 -80.26608 32631 ft 284 kts 344°
2026-05-07 10:55 26.69711 -80.26967 32963 ft 286 kts 341°
2026-05-07 10:56 26.71665 -80.27538 33042 ft 296 kts 335°
2026-05-07 10:56 26.73610 -80.28306 33050 ft 309 kts 334°
2026-05-07 10:56 26.75677 -80.29172 33047 ft 325 kts 334°
2026-05-07 10:56 26.77839 -80.30084 33045 ft 340 kts 334°
2026-05-07 10:57 26.80100 -80.31035 33050 ft 355 kts 334°
2026-05-07 10:57 26.82458 -80.32024 33048 ft 369 kts 335°
2026-05-07 10:57 26.84909 -80.33051 33060 ft 383 kts 334°
2026-05-07 10:57 26.87447 -80.34114 33053 ft 396 kts 335°
2026-05-07 10:58 26.90074 -80.35214 33052 ft 409 kts 335°
2026-05-07 10:58 26.92781 -80.36348 33053 ft 422 kts 335°
2026-05-07 10:58 26.95543 -80.37482 33055 ft 434 kts 335°
2026-05-07 10:58 26.98422 -80.38643 33057 ft 446 kts 336°
2026-05-07 10:59 27.04379 -80.41040 33395 ft 454 kts 336°
2026-05-07 10:59 27.07309 -80.42211 34393 ft 443 kts 336°
2026-05-07 10:59 27.10195 -80.43408 34690 ft 441 kts 335°
2026-05-07 11:00 27.15893 -80.45916 34712 ft 440 kts 334°
2026-05-07 11:00 27.21504 -80.48397 34477 ft 422 kts 334°
2026-05-07 11:01 27.24201 -80.49588 34254 ft 410 kts 334°
2026-05-07 11:01 27.26786 -80.50731 34030 ft 400 kts 334°
2026-05-07 11:01 27.29359 -80.51870 33776 ft 396 kts 333°
2026-05-07 11:01 27.31921 -80.53008 33514 ft 397 kts 333°
2026-05-07 11:02 27.34489 -80.54149 33259 ft 398 kts 333°
2026-05-07 11:02 27.37084 -80.55268 33071 ft 400 kts 335°
2026-05-07 11:02 27.42348 -80.57372 33068 ft 402 kts 335°
2026-05-07 11:03 27.47615 -80.59460 33069 ft 401 kts 335°
2026-05-07 11:03 27.52847 -80.61539 33074 ft 401 kts 335°
2026-05-07 11:04 27.58108 -80.63634 33055 ft 401 kts 335°
2026-05-07 11:04 27.63375 -80.65733 33057 ft 401 kts 335°
2026-05-07 11:05 27.68640 -80.67833 33054 ft 401 kts 335°
2026-05-07 11:05 27.73868 -80.69921 33053 ft 401 kts 335°
2026-05-07 11:06 27.79132 -80.72026 33057 ft 401 kts 335°
2026-05-07 11:06 27.84390 -80.74130 33059 ft 401 kts 335°
2026-05-07 11:07 27.89640 -80.76233 33068 ft 401 kts 335°
2026-05-07 11:07 27.94860 -80.78327 33077 ft 401 kts 335°
2026-05-07 11:08 28.00111 -80.80435 33077 ft 401 kts 335°
2026-05-07 11:08 28.05366 -80.82547 33072 ft 401 kts 335°
2026-05-07 11:09 28.10614 -80.84657 33066 ft 399 kts 334°
2026-05-07 11:09 28.15847 -80.86765 33054 ft 399 kts 334°
2026-05-07 11:10 28.21040 -80.88859 33062 ft 399 kts 334°
2026-05-07 11:10 28.26269 -80.90969 33057 ft 399 kts 334°
2026-05-07 11:11 28.31505 -80.93084 33072 ft 400 kts 334°
2026-05-07 11:11 28.36754 -80.95207 33092 ft 400 kts 334°
2026-05-07 11:12 28.41959 -80.97313 33071 ft 399 kts 334°
2026-05-07 11:12 28.47187 -80.99432 33070 ft 399 kts 334°
2026-05-07 11:13 28.52418 -81.01554 33066 ft 399 kts 334°
2026-05-07 11:13 28.57647 -81.03678 33066 ft 399 kts 334°
2026-05-07 11:14 28.62878 -81.05804 33056 ft 399 kts 334°
2026-05-07 11:14 28.68073 -81.07918 33068 ft 398 kts 334°
2026-05-07 11:15 28.73277 -81.10038 33062 ft 397 kts 334°
2026-05-07 11:15 28.78419 -81.12135 33063 ft 396 kts 334°
2026-05-07 11:16 28.83639 -81.14267 33057 ft 396 kts 334°
2026-05-07 11:16 28.88829 -81.16388 33062 ft 397 kts 334°
2026-05-07 11:17 28.94029 -81.18515 33067 ft 397 kts 334°
2026-05-07 11:17 28.99213 -81.20638 33071 ft 394 kts 334°
2026-05-07 11:18 29.04332 -81.22733 33073 ft 393 kts 334°
2026-05-07 11:18 29.09752 -81.23986 33073 ft 407 kts 351°
2026-05-07 11:19 29.12616 -81.23796 33073 ft 418 kts
2026-05-07 11:19 29.15468 -81.22978 33072 ft 429 kts 12°
2026-05-07 11:19 29.19896 -81.20181 33070 ft 449 kts 31°
2026-05-07 11:20 29.22169 -81.17664 33062 ft 461 kts 43°
2026-05-07 11:20 29.23985 -81.14601 33063 ft 472 kts 56°
2026-05-07 11:20 29.25234 -81.11089 33066 ft 481 kts 69°
2026-05-07 11:20 29.25845 -81.06033 33065 ft 489 kts 87°
2026-05-07 11:21 29.25605 -80.99550 33073 ft 492 kts 92°
2026-05-07 11:21 29.25014 -80.91742 33067 ft 492 kts 93°
2026-05-07 11:22 29.24400 -80.83941 33064 ft 492 kts 92°
2026-05-07 11:22 29.23997 -80.76142 33048 ft 488 kts 83°
2026-05-07 11:23 29.24836 -80.68590 33070 ft 485 kts 78°
2026-05-07 11:23 29.25777 -80.60989 33085 ft 485 kts 78°
2026-05-07 11:24 29.26723 -80.53345 33107 ft 485 kts 77°
2026-05-07 11:24 29.27670 -80.45698 33099 ft 484 kts 77°